This is the latest recevied weather packets stored in our database for station/object W0DXV. If no packets are shown the sender has not sent any weather packets the latest 1 day(s).
| Time | Temp. | Humidity | Pressure | Rain* | Wind** | Luminosity | Snow |
|---|---|---|---|---|---|---|---|
| 1778093906 | 19.44° C | 89% | 1008.9 hPa | 0 mm | 0.45 m/s, 256° | 412 W/m² | - |
| 1778093603 | 19.44° C | 91% | 1008.6 hPa | 0 mm | 0.89 m/s, 242° | 503 W/m² | - |
| 1778093300 | 19.44° C | 90% | 1008.8 hPa | 0 mm | 0.45 m/s, 265° | 324 W/m² | - |
| 1778092997 | 18.89° C | 91% | 1009 hPa | 0 mm | 0 m/s | 286 W/m² | - |
| 1778092694 | 18.89° C | 90% | 1008.9 hPa | 0 mm | 0.45 m/s, 223° | 229 W/m² | - |
| 1778092389 | 18.89° C | 91% | 1009 hPa | 0 mm | 0.89 m/s, 232° | 226 W/m² | - |
| 1778092086 | 18.89° C | 92% | 1009.3 hPa | 0 mm | 0.45 m/s, 241° | 263 W/m² | - |
| 1778091784 | 18.89° C | 93% | 1009.3 hPa | 0 mm | 0.45 m/s, 231° | 262 W/m² | - |
| 1778091481 | 18.89° C | 94% | 1008.9 hPa | 0 mm | 0.45 m/s, 269° | 324 W/m² | - |
| 1778091179 | 18.89° C | 94% | 1008.8 hPa | 0 mm | 0.45 m/s, 248° | 338 W/m² | - |
| 1778090876 | 18.89° C | 93% | 1008.6 hPa | 0 mm | 0.45 m/s, 215° | 256 W/m² | - |
| 1778090572 | 18.89° C | 94% | 1008.8 hPa | 0 mm | 0.45 m/s, 175° | 273 W/m² | - |
| 1778090268 | 18.33° C | 95% | 1009.1 hPa | 0 mm | 0 m/s | 360 W/m² | - |
| 1778089965 | 17.78° C | 96% | 1009.7 hPa | 0 mm | 0.45 m/s, 147° | 230 W/m² | - |
| 1778089663 | 17.78° C | 95% | 1010.2 hPa | 0 mm | 0.45 m/s, 243° | 234 W/m² | - |
| 1778089359 | 17.78° C | 95% | 1010.7 hPa | 0 mm | 0.45 m/s, 227° | 165 W/m² | - |
| 1778089057 | 17.78° C | 95% | 1010.7 hPa | 0 mm | 0.45 m/s, 224° | 119 W/m² | - |
| 1778088754 | 17.78° C | 94% | 1010.7 hPa | 1.78 mm | 0 m/s | 117 W/m² | - |
| 1778088451 | 17.78° C | 94% | 1010.4 hPa | 1.78 mm | 0 m/s | 133 W/m² | - |
| 1778088147 | 17.78° C | 93% | 1010.7 hPa | 0 mm | 0.45 m/s, 232° | 107 W/m² | - |
| 1778087845 | 17.78° C | 91% | 1010.7 hPa | 1.27 mm | 0 m/s | 141 W/m² | - |
| 1778087542 | 18.33° C | 89% | 1010.9 hPa | 7.11 mm | 0 m/s | 116 W/m² | - |
| 1778087239 | 19.44° C | 85% | 1010.7 hPa | 6.1 mm | 0.45 m/s, 238° | 88 W/m² | - |
| 1778086936 | 20° C | 81% | 1011.2 hPa | 0 mm | 0.89 m/s, 229° | 51 W/m² | - |
| 1778086635 | 20.56° C | 77% | 1010.6 hPa | 0 mm | 0 m/s | 45 W/m² | - |
* Rain latest hour (hover to see other rain measurements)
** Current wind speed in m/s (hover to see current wind gust speed)